sat.trackr.live / text

‹ back to catalog

STARLINK-31969

NORAD 59889 · 2024-100E

PAYLOAD ACTIVE UNKNOWN

§ Identity

Operator
Country
US
Launch date
2024-05-28
Launch site
AFETR
Launch vehicle
Mass (kg)
RCS (m²)

Purposes: comms

External: N2YO · Heavens-Above · Gunter

§ Orbital elements

Epoch: 2026-05-25T00:54:11.421216Z

Period
94.27 min
Inclination
43.0035°
Eccentricity
0.0001146
Mean motion
15.27586638 rev/d
Perigee alt
482.2 km
Apogee alt
483.8 km
Semi-major
6,861.2 km
B*
3.7698e-5
RAAN
50.7417°
Arg perigee
282.3521°
Mean anomaly
77.7202°
Rev number
11,287

§ Raw data

STARLINK-319691 59889U 24100E   26145.03763219  .00000776  00000+0  37698-4 0  99912 59889  43.0035  50.7417 0001146 282.3521  77.7202 15.27586638112870

JSON: /api/v1/satellites/59889 · /tle

For live sub-satellite position, see the globe view (requires WebGL).

§ Visibility from observer

Set your observer location to see the next 7 days of passes ≥ 10°. The values pass through the URL so the page stays shareable.

No JS? Fill the form by hand. The geolocation button needs JavaScript.